Location: Horowhenua
(40.7500°S, 175.3333°E)
Time: 05:37:02
(UTC+00:00)

Iridium 4 Rocket - Pass Details

Date: 28 January 2023
Orbit: 582 x 902 km, 86.9° (Epoch: 01 April)

Event Time Altitude Azimuth Distance (km) Brightness Sun altitude
Exits shadow 13:01:15 44° 126° (SE) 1,040 4.3 -30.7°
Drops below altitude 10° 13:05:04 10° 166° (SSE) 2,210 6.8 -30.6°
Sets 13:07:20 0° 171° (S) 3,086 7.8 -30.5°
